Wind_Speed
27 25 24 23 21 20 19 19 20 21 20 19 19 16 15 14 12 12 12 7 4 1 4 2 1 13 22 28 34 35 36 36 35 30 25 27 29 32 35 35 36 39 33 37 39
28 27 25 24 24 24 24 24 25 26 26 24 23 22 18 19 20 14 15 12 10 6 2 2 1 0 9 19 24 29 35 38 38 38 39 40 42 45 46 44 40 41 43 39 39
29 29 29 29 29 30 30 30 30 29 29 30 28 27 26 23 24 22 20 16 15 13 11 5 4 4 2 6 15 20 27 32 35 38 39 39 40 41 41 39 40 40 32 30 27
35 35 35 36 36 36 36 35 35 35 35 35 35 33 32 32 27 26 25 23 19 17 17 14 7 9 7 6 5 8 16 26 33 34 36 39 40 41 43 38 25 24 23 16 13
42 42 41 42 42 42 42 42 41 41 41 41 41 38 36 34 33 30 30 27 24 23 22 19 14 14 11 12 9 8 8 12 18 20 21 24 29 32 31 24 19 17 8 13 14
47 47 47 46 46 46 45 45 44 43 42 41 39 39 38 36 36 38 32 32 29 28 28 27 21 20 16 16 14 13 9 8 12 16 15 14 18 21 21 10 11 11 10 14 17
50 49 48 45 44 43 41 44 44 44 45 46 45 43 42 43 40 41 38 37 36 33 34 33 29 25 22 21 19 15 12 10 9 12 13 15 17 18 17 10 10 13 11 11 14
49 50 50 48 49 47 47 50 49 50 52 52 51 49 47 46 46 46 44 42 41 40 38 37 36 33 27 25 24 19 15 15 11 13 11 15 13 13 13 11 9 13 11 9 11
57 55 55 53 54 51 51 54 52 51 54 52 51 50 50 48 46 45 47 47 46 44 41 38 40 40 33 30 29 23 19 19 14 16 9 9 10 10 8 10 6 11 10 9 11
58 60 58 58 59 57 55 56 56 54 53 53 51 50 51 49 49 46 46 47 49 51 48 46 42 43 42 40 35 27 21 23 19 18 11 10 10 8 11 10 8 10 13 11 8
60 62 63 61 61 59 57 58 58 56 56 53 51 48 47 47 46 45 46 45 48 49 51 51 49 49 49 46 39 32 28 27 23 20 17 13 10 15 15 11 10 12 14 11 5
64 65 67 66 66 64 62 60 59 56 51 50 48 49 45 44 45 43 42 42 41 43 45 49 55 53 47 44 43 38 37 35 28 24 20 18 12 11 11 9 7 3 9 9 7
70 69 70 69 67 66 64 61 58 56 52 54 49 50 46 40 47 43 39 38 36 33 37 41 46 47 50 50 46 44 44 40 35 26 21 21 15 11 11 10 7 7 8 11 13
73 71 71 74 71 67 63 62 61 57 55 55 55 50 49 43 45 47 43 39 36 37 30 32 38 43 46 51 53 49 53 41 36 32 27 22 21 18 13 15 8 9 11 14 14
79 75 72 71 73 70 68 64 63 61 60 57 59 54 52 51 50 52 50 41 40 37 28 34 26 30 37 48 47 54 50 43 38 34 30 25 25 22 20 16 12 10 10 14 12
85 83 77 74 75 74 74 71 67 67 62 60 58 59 56 54 55 54 52 47 47 39 37 33 28 27 31 30 39 46 50 48 42 38 30 37 31 27 26 18 17 15 13 13 14
90 89 85 81 79 79 77 77 75 68 66 67 63 62 63 63 57 56 54 51 48 45 45 47 38 36 32 27 27 34 43 45 44 38 45 41 33 35 31 26 21 20 19 17 14
89 90 89 87 84 84 83 80 78 74 73 72 72 69 69 69 66 62 58 54 52 48 51 46 41 38 38 32 33 32 24 28 42 48 47 39 41 42 36 30 26 24 23 22 19
87 89 88 88 89 92 92 88 81 81 80 78 78 78 75 73 70 70 67 62 60 56 55 51 45 47 44 43 39 31 19 27 24 35 44 42 49 42 42 35 31 30 28 29 27
92 91 89 89 91 91 95 94 92 86 83 87 86 83 80 78 75 74 73 69 66 62 56 52 49 47 46 43 38 30 33 20 16 17 26 42 51 52 46 44 42 37 34 33 30
97 96 94 94 94 94 94 93 97 94 89 87 92 91 87 84 81 80 76 73 71 68 63 58 54 53 51 40 39 37 34 29 24 20 19 24 35 49 53 51 47 44 41 37 35
101 100 98 99 95 97 96 95 95 95 97 97 91 96 94 92 88 88 81 77 73 72 69 65 60 57 54 52 47 41 36 28 22 25 27 22 22 26 41 53 51 48 46 43 42
108 105 102 100 99 99 99 99 97 96 96 96 100 98 100 98 98 96 92 85 81 77 74 70 66 65 63 61 52 44 42 38 32 28 22 24 23 28 25 31 50 54 51 50 52
100 100 101 102 103 104 103 100 101 98 97 96 96 99 101 103 102 100 99 94 90 86 80 77 73 72 68 68 61 55 49 42 38 30 28 26 30 34 35 30 26 41 54 55 55
74 78 82 84 93 104 109 107 104 103 101 98 96 97 102 106 107 105 101 100 98 95 91 86 82 78 75 75 70 64 57 53 45 38 32 36 36 38 43 37 24 20 25 44 56
56 59 65 67 71 79 94 107 111 110 109 104 99 95 99 106 110 111 109 106 103 101 99 95 91 85 81 78 75 68 63 60 56 50 45 38 36 43 49 38 31 25 25 25 29
48 49 52 54 57 59 69 85 101 109 114 113 107 98 98 100 107 111 111 110 107 103 102 101 97 93 88 85 79 70 67 65 63 57 51 44 43 42 45 42 34 27 25 26 28
Wind_Direction
268 268 268 268 267 270 274 274 277 281 285 289 295 302 307 311 313 320 324 335 342 319 108 66 4 237 232 234 236 238 237 234 233 233 239 241 242 250 262 272 278 291 291 298 306
267 267 266 267 271 273 273 271 271 274 278 279 282 288 288 292 297 296 297 304 303 294 239 169 152 273 238 231 235 243 246 245 246 248 250 255 257 266 271 274 280 289 292 300 301
265 266 267 269 273 274 273 273 271 270 272 276 279 281 281 277 282 285 289 285 281 287 281 225 232 214 228 224 232 239 245 248 251 253 258 261 263 267 270 276 283 291 301 290 277
266 267 268 269 270 271 270 269 269 267 269 271 273 274 275 277 273 277 276 278 273 273 279 274 243 246 232 235 237 230 247 253 254 257 259 264 271 271 275 282 294 293 276 263 263
266 266 266 267 268 269 270 271 270 268 269 269 269 270 270 271 273 267 273 271 271 273 269 268 266 256 250 241 237 249 270 268 264 262 268 277 279 281 280 284 285 268 263 269 249
265 267 266 267 267 269 270 272 271 270 269 269 269 270 268 266 267 269 263 263 260 262 262 266 263 260 253 252 239 247 247 267 276 279 281 292 303 301 299 303 265 248 239 235 239
267 267 269 270 271 273 274 275 275 275 275 276 274 272 272 272 271 268 266 261 262 257 262 266 264 259 262 254 253 242 245 255 277 281 295 315 329 328 313 270 255 242 240 230 227
268 265 265 266 268 270 272 273 274 276 277 276 275 273 271 272 269 268 268 264 261 259 256 259 262 258 250 253 252 249 249 253 269 285 305 325 336 338 306 265 234 223 219 219 261
269 266 265 267 269 269 272 273 273 274 275 276 275 276 273 271 268 266 264 261 259 259 258 252 250 252 253 247 246 243 242 251 253 267 281 311 316 344 301 286 225 217 233 253 265
266 264 265 268 269 269 269 270 272 273 273 275 274 274 273 270 267 264 258 259 257 253 252 250 247 250 250 246 242 243 244 248 249 260 262 291 296 310 337 282 238 238 255 276 246
266 266 265 266 267 267 266 269 270 273 271 270 270 268 267 268 264 258 256 253 251 250 247 246 241 238 241 245 243 242 241 244 241 246 256 262 288 282 300 298 254 254 265 259 184
267 266 266 266 267 268 268 268 269 268 262 260 256 256 258 260 256 254 251 252 246 245 245 242 241 242 243 247 246 241 243 239 237 237 242 252 256 281 294 283 237 208 247 194 171
270 269 269 267 266 266 266 265 263 261 254 252 248 253 254 250 249 247 243 246 248 245 244 244 243 240 237 238 238 236 235 237 239 241 243 247 251 242 256 274 216 141 181 155 154
270 269 269 269 269 266 263 261 257 254 246 249 246 247 252 241 247 245 245 243 243 246 249 246 239 237 236 234 235 235 234 235 235 237 240 245 248 233 239 249 221 153 152 160 162
271 269 267 267 267 264 262 257 253 249 243 243 250 243 243 247 240 247 245 245 241 233 233 245 242 244 240 237 236 235 240 237 236 237 242 242 245 243 231 242 233 189 179 176 186
270 270 268 266 265 264 260 257 252 247 246 241 241 247 241 239 241 242 246 240 239 233 225 238 235 239 242 237 238 236 236 235 233 230 232 236 236 239 238 227 224 213 205 221 215
267 267 265 264 263 262 260 257 252 249 243 241 236 240 245 241 238 241 241 242 238 231 230 235 227 230 240 242 243 236 236 233 230 229 225 229 233 238 236 231 223 216 218 224 221
268 266 262 260 260 259 259 256 252 249 244 240 240 235 240 243 240 236 238 239 240 236 238 237 235 232 236 231 237 242 238 235 225 223 225 224 232 234 237 234 230 227 219 228 219
266 263 261 259 256 254 255 255 250 246 242 240 238 236 234 237 240 240 236 233 235 234 234 235 234 234 231 237 238 241 226 221 221 227 229 224 233 233 239 236 235 230 225 222 227
265 264 260 258 256 253 252 251 250 246 242 239 238 236 234 235 237 240 240 237 234 233 233 234 234 237 237 236 242 240 238 226 216 206 216 224 228 232 231 235 233 231 229 230 229
264 260 259 257 256 254 251 250 248 246 242 239 238 236 234 233 236 237 237 237 234 234 232 231 231 236 235 229 235 235 232 221 215 207 220 219 224 230 228 229 235 233 233 231 235
266 263 259 255 253 252 251 248 246 246 243 239 237 237 235 232 232 237 238 235 235 234 233 230 226 232 236 230 228 228 227 220 212 220 220 225 252 233 230 226 230 235 239 238 234
272 267 261 257 254 252 250 249 247 244 242 240 238 234 233 234 231 233 235 237 236 235 232 231 228 229 232 233 230 227 232 228 224 224 219 218 244 251 242 229 225 228 232 239 242
273 268 265 260 255 251 248 247 247 244 242 240 237 235 232 231 232 231 232 234 235 234 232 231 230 231 231 235 236 233 233 233 222 219 223 209 224 243 247 239 228 226 229 235 243
272 269 265 260 255 251 248 246 244 244 243 239 236 233 231 229 230 230 230 230 233 233 232 231 232 232 232 235 238 239 238 236 226 218 219 217 215 240 245 243 232 233 239 234 238
279 271 266 262 256 250 245 243 244 242 242 241 237 233 231 229 229 230 231 230 231 232 232 230 231 231 232 233 236 237 237 235 232 226 220 225 222 234 243 250 247 239 238 242 245
283 276 269 263 256 253 246 241 239 240 240 239 239 234 231 230 229 230 231 232 231 231 231 231 230 230 231 231 232 234 238 233 233 230 226 216 221 225 244 249 244 238 238 245 246
Height
10962 10962 10963 10963 10964 10964 10964 10963 10963 10962 10962 10962 10962 10963 10963 10965 10966 10965 10964 10964 10963 10962 10962 10960 10959 10958 10960 10962 10963 10964 10966 10967 10971 10972 10975 10976 10975 10974 10973 10974 10975 10973 10973 10972 10970
10956 10957 10958 10958 10959 10959 10959 10959 10959 10958 10958 10958 10959 10960 10961 10961 10961 10963 10963 10963 10961 10961 10961 10960 10959 10958 10957 10957 10959 10961 10962 10964 10967 10968 10969 10972 10972 10970 10968 10969 10969 10967 10967 10966 10966
10951 10952 10953 10953 10953 10953 10954 10954 10954 10954 10953 10954 10954 10956 10957 10958 10958 10959 10959 10960 10959 10959 10958 10960 10959 10957 10957 10956 10956 10956 10956 10959 10960 10962 10964 10967 10967 10965 10962 10963 10963 10962 10962 10961 10961
10945 10946 10946 10946 10946 10946 10946 10947 10947 10947 10948 10948 10948 10950 10951 10951 10954 10954 10954 10955 10956 10956 10955 10956 10958 10956 10956 10955 10955 10955 10954 10953 10953 10956 10959 10959 10959 10959 10957 10956 10956 10957 10957 10956 10959
10936 10937 10938 10938 10938 10938 10938 10939 10939 10939 10939 10940 10941 10943 10944 10946 10946 10948 10949 10950 10952 10951 10951 10952 10955 10955 10955 10953 10953 10953 10953 10952 10948 10952 10955 10956 10954 10952 10950 10951 10951 10953 10954 10955 10958
10928 10928 10928 10928 10929 10929 10929 10929 10929 10930 10931 10931 10933 10935 10936 10939 10940 10938 10944 10943 10946 10946 10945 10947 10950 10951 10952 10951 10952 10951 10952 10950 10946 10948 10950 10950 10949 10947 10947 10948 10949 10950 10952 10955 10955
10918 10918 10918 10918 10918 10920 10921 10919 10919 10919 10921 10921 10923 10926 10927 10928 10932 10929 10934 10936 10937 10941 10940 10940 10944 10947 10948 10948 10948 10949 10950 10949 10947 10946 10946 10946 10945 10943 10944 10945 10947 10948 10950 10953 10953
10906 10907 10907 10907 10908 10910 10912 10908 10910 10909 10908 10910 10912 10914 10916 10919 10921 10921 10924 10926 10928 10930 10934 10936 10935 10938 10943 10944 10944 10945 10945 10946 10945 10944 10944 10943 10942 10942 10942 10942 10944 10947 10948 10950 10952
10895 10896 10896 10896 10896 10900 10901 10897 10898 10899 10896 10898 10900 10901 10902 10906 10908 10912 10912 10914 10917 10920 10924 10928 10927 10929 10936 10938 10939 10941 10942 10941 10942 10942 10942 10944 10943 10942 10941 10941 10943 10945 10946 10948 10948
10881 10882 10883 10884 10883 10887 10888 10886 10886 10887 10886 10886 10888 10890 10890 10893 10895 10898 10900 10902 10905 10908 10912 10915 10919 10921 10923 10927 10932 10938 10938 10937 10938 10938 10941 10941 10941 10941 10941 10941 10943 10944 10944 10946 10946
10866 10866 10867 10870 10868 10872 10875 10874 10874 10875 10873 10875 10874 10878 10880 10881 10883 10885 10885 10891 10894 10896 10900 10906 10908 10907 10909 10917 10926 10933 10934 10934 10936 10936 10939 10940 10940 10940 10940 10939 10940 10942 10943 10944 10943
10850 10850 10849 10852 10852 10856 10857 10861 10861 10863 10861 10862 10863 10864 10870 10872 10871 10874 10876 10877 10883 10887 10888 10890 10891 10899 10907 10912 10916 10923 10926 10927 10931 10934 10935 10938 10941 10940 10939 10939 10939 10939 10942 10942 10942
10831 10833 10830 10832 10836 10838 10840 10843 10846 10848 10850 10846 10851 10852 10861 10864 10859 10864 10867 10869 10872 10876 10877 10880 10885 10889 10894 10899 10905 10910 10912 10919 10926 10930 10933 10934 10937 10938 10938 10940 10938 10937 10942 10941 10942
10809 10812 10812 10809 10815 10820 10820 10824 10826 10833 10836 10833 10838 10844 10845 10854 10851 10853 10858 10863 10866 10865 10870 10869 10874 10876 10882 10886 10891 10898 10896 10914 10922 10925 10929 10931 10931 10934 10935 10936 10937 10935 10941 10941 10943
10786 10789 10790 10793 10790 10796 10799 10803 10807 10813 10818 10822 10822 10832 10833 10835 10840 10840 10844 10855 10856 10859 10865 10859 10868 10869 10870 10873 10884 10886 10895 10905 10915 10922 10926 10927 10925 10928 10930 10931 10935 10934 10938 10942 10943
10759 10761 10769 10773 10768 10770 10774 10781 10787 10791 10802 10809 10812 10811 10817 10820 10822 10827 10834 10840 10842 10853 10857 10855 10861 10861 10859 10870 10871 10879 10884 10895 10904 10912 10922 10916 10918 10922 10924 10929 10931 10933 10935 10938 10942
10729 10731 10742 10745 10746 10746 10749 10754 10761 10774 10784 10787 10796 10796 10797 10802 10809 10813 10821 10826 10831 10838 10843 10840 10851 10851 10856 10860 10861 10867 10872 10885 10897 10904 10901 10908 10916 10912 10918 10924 10928 10931 10932 10934 10938
10698 10700 10707 10714 10720 10717 10721 10727 10738 10752 10758 10767 10772 10778 10780 10782 10791 10798 10805 10813 10819 10826 10826 10835 10844 10847 10847 10851 10854 10861 10871 10877 10879 10885 10891 10905 10905 10906 10911 10919 10925 10927 10930 10934 10936
10666 10665 10672 10678 10684 10687 10688 10698 10711 10718 10731 10739 10746 10753 10762 10763 10770 10780 10789 10796 10799 10807 10812 10821 10832 10833 10840 10842 10848 10856 10864 10862 10873 10879 10886 10896 10892 10902 10904 10911 10916 10920 10924 10927 10931
10633 10634 10639 10643 10646 10653 10657 10667 10673 10688 10701 10710 10717 10730 10742 10747 10753 10759 10767 10780 10785 10793 10802 10812 10819 10823 10826 10836 10844 10852 10851 10862 10868 10872 10873 10879 10882 10886 10894 10899 10904 10911 10917 10921 10927
10597 10597 10603 10607 10613 10617 10623 10632 10640 10653 10671 10681 10692 10701 10716 10727 10734 10736 10747 10759 10768 10777 10788 10798 10806 10808 10814 10830 10832 10837 10845 10851 10858 10865 10867 10867 10867 10872 10884 10891 10896 10903 10907 10915 10920
10557 10561 10565 10569 10578 10580 10587 10598 10608 10617 10633 10646 10659 10673 10688 10701 10712 10713 10725 10738 10750 10760 10770 10780 10791 10795 10802 10808 10816 10826 10835 10845 10852 10857 10859 10863 10862 10865 10870 10881 10890 10897 10902 10907 10912
10509 10514 10521 10529 10538 10545 10552 10560 10571 10584 10594 10610 10625 10639 10656 10671 10684 10690 10703 10719 10729 10740 10751 10763 10773 10780 10785 10791 10806 10818 10826 10835 10842 10849 10857 10861 10854 10855 10861 10867 10875 10884 10893 10896 10897
10458 10460 10466 10481 10494 10503 10512 10525 10534 10548 10558 10576 10590 10609 10625 10639 10650 10666 10679 10694 10704 10718 10731 10742 10754 10763 10772 10776 10789 10803 10816 10826 10835 10843 10848 10855 10848 10846 10851 10858 10865 10873 10881 10886 10889
10419 10417 10421 10432 10445 10458 10469 10485 10498 10510 10521 10537 10556 10573 10590 10604 10620 10634 10650 10665 10677 10690 10706 10720 10730 10744 10756 10764 10775 10788 10803 10813 10824 10831 10839 10836 10841 10837 10841 10849 10860 10867 10872 10876 10878
10395 10392 10391 10397 10405 10417 10428 10442 10456 10474 10484 10498 10521 10540 10558 10571 10588 10604 10619 10634 10648 10664 10678 10694 10708 10722 10736 10747 10757 10774 10787 10797 10807 10816 10827 10831 10839 10834 10829 10843 10854 10860 10864 10868 10869
10370 10370 10368 10373 10380 10385 10394 10404 10417 10435 10448 10462 10481 10509 10528 10544 10559 10574 10591 10606 10624 10638 10653 10669 10686 10698 10716 10729 10743 10759 10771 10782 10792 10803 10814 10823 10825 10826 10823 10835 10846 10851 10856 10859 10861